| time (UTC) | temp F | wind direction | speed MPH | gust MPH | rain 1hr in | rain 24hr in | rain mn in | humidity % | barometer mb |
| 20260904203504 | 56 | 265 | 3.0 | 7.0 | 0.00 | 0.24 | 0.20 | 86 | 1018.2 |
| 20260904203004 | 56 | 265 | 5.0 | 7.0 | 0.00 | 0.24 | 0.20 | 86 | 1018.2 |
| 20260904202503 | 56 | 262 | 3.0 | 7.0 | 0.00 | 0.24 | 0.20 | 85 | 1018.2 |
| 20260904201503 | 57 | 262 | 3.0 | 6.0 | 0.00 | 0.24 | 0.20 | 84 | 1018.2 |
| 20260904201003 | 57 | 260 | 4.0 | 6.0 | 0.00 | 0.24 | 0.20 | 84 | 1018.2 |
| 20260904200504 | 57 | 269 | 3.0 | 7.0 | 0.00 | 0.24 | 0.20 | 83 | 1018.2 |
| 20260904200004 | 58 | 264 | 3.0 | 3.0 | 0.00 | 0.24 | 0.20 | 83 | 1018.1 |
| 20260904195503 | 58 | 259 | 2.0 | 5.0 | 0.00 | 0.24 | 0.20 | 82 | 1018.1 |
| 20260904195004 | 58 | 253 | 3.0 | 6.0 | 0.00 | 0.24 | 0.20 | 82 | 1018.0 |
| 20260904194503 | 58 | 270 | 4.0 | 7.0 | 0.00 | 0.24 | 0.20 | 82 | 1018.0 |
| 20260904193504 | 59 | 252 | 3.0 | 8.0 | 0.00 | 0.24 | 0.20 | 81 | 1017.8 |
| 20260904193004 | 59 | 260 | 5.0 | 10.0 | 0.00 | 0.24 | 0.20 | 81 | 1017.8 |
| 20260904192504 | 59 | 261 | 6.0 | 9.0 | 0.00 | 0.24 | 0.20 | 81 | 1017.8 |
| 20260904192003 | 59 | 279 | 5.0 | 10.0 | 0.00 | 0.24 | 0.20 | 80 | 1017.8 |
| 20260904191504 | 59 | 273 | 7.0 | 12.0 | 0.00 | 0.24 | 0.20 | 80 | 1017.8 |
| 20260904191004 | 59 | 269 | 7.0 | 12.0 | 0.00 | 0.24 | 0.20 | 80 | 1017.7 |
| 20260904190504 | 60 | 288 | 7.0 | 12.0 | 0.00 | 0.24 | 0.20 | 79 | 1017.6 |
| 20260904190004 | 60 | 282 | 6.0 | 10.0 | 0.00 | 0.24 | 0.20 | 79 | 1017.6 |
| 20260904185503 | 60 | 270 | 6.0 | 14.0 | 0.00 | 0.24 | 0.20 | 79 | 1017.5 |
| 20260904185003 | 60 | 272 | 6.0 | 13.0 | 0.00 | 0.24 | 0.20 | 78 | 1017.5 |
| 20260904184504 | 60 | 270 | 9.0 | 12.0 | 0.00 | 0.24 | 0.20 | 78 | 1017.6 |
| 20260904184004 | 61 | 267 | 9.0 | 13.0 | 0.00 | 0.24 | 0.20 | 78 | 1017.5 |
| 20260904183003 | 61 | 259 | 7.0 | 12.0 | 0.00 | 0.24 | 0.20 | 77 | 1017.5 |
| 20260904182503 | 61 | 280 | 5.0 | 10.0 | 0.00 | 0.24 | 0.20 | 77 | 1017.5 |
| 20260904182003 | 61 | 287 | 6.0 | 13.0 | 0.00 | 0.24 | 0.20 | 77 | 1017.5 |
| 20260904181004 | 61 | 267 | 7.0 | 12.0 | 0.00 | 0.24 | 0.20 | 76 | 1017.3 |
| 20260904180004 | 62 | 262 | 8.0 | 17.0 | 0.00 | 0.24 | 0.20 | 75 | 1017.1 |
| 20260904175503 | 62 | 291 | 6.0 | 15.0 | 0.00 | 0.24 | 0.20 | 75 | 1017.1 |
| 20260904175004 | 62 | 268 | 9.0 | 16.0 | 0.00 | 0.24 | 0.20 | 75 | 1017.1 |
| 20260904174504 | 63 | 257 | 10.0 | 17.0 | 0.00 | 0.24 | 0.20 | 75 | 1017.1 |
| 20260904173504 | 63 | 274 | 7.0 | 12.0 | 0.00 | 0.24 | 0.20 | 74 | 1017.0 |
| 20260904172504 | 64 | 289 | 9.0 | 16.0 | 0.00 | 0.25 | 0.20 | 74 | 1017.1 |
| 20260904172004 | 63 | 269 | 7.0 | 13.0 | 0.00 | 0.25 | 0.20 | 75 | 1017.0 |
| 20260904171503 | 63 | 275 | 7.0 | 12.0 | 0.00 | 0.25 | 0.20 | 75 | 1017.0 |
| 20260904170003 | 62 | 281 | 9.0 | 15.0 | 0.00 | 0.25 | 0.20 | 75 | 1016.8 |
| 20260904165503 | 62 | 258 | 6.0 | 12.0 | 0.00 | 0.25 | 0.20 | 75 | 1016.8 |
| 20260904165004 | 62 | 286 | 7.0 | 14.0 | 0.00 | 0.25 | 0.20 | 75 | 1016.8 |
| 20260904164004 | 62 | 250 | 6.0 | 10.0 | 0.00 | 0.25 | 0.20 | 75 | 1016.6 |
| 20260904163503 | 62 | 261 | 10.0 | 14.0 | 0.00 | 0.25 | 0.20 | 74 | 1016.5 |
| 20260904162503 | 62 | 277 | 9.0 | 13.0 | 0.00 | 0.26 | 0.20 | 72 | 1016.4 |
| 20260904162004 | 63 | 273 | 10.0 | 16.0 | 0.00 | 0.26 | 0.20 | 72 | 1016.5 |
| 20260904161504 | 63 | 274 | 10.0 | 18.0 | 0.00 | 0.26 | 0.20 | 72 | 1016.4 |
| 20260904161003 | 63 | 284 | 8.0 | 17.0 | 0.00 | 0.26 | 0.20 | 72 | 1016.3 |
| 20260904160504 | 63 | 295 | 10.0 | 17.0 | 0.00 | 0.26 | 0.20 | 72 | 1016.2 |
| 20260904160003 | 63 | 285 | 9.0 | 14.0 | 0.00 | 0.26 | 0.20 | 72 | 1016.3 |
| 20260904155504 | 63 | 280 | 8.0 | 14.0 | 0.00 | 0.26 | 0.20 | 73 | 1016.3 |
| 20260904155004 | 63 | 260 | 9.0 | 20.0 | 0.00 | 0.26 | 0.20 | 72 | 1016.2 |
| 20260904154503 | 64 | 283 | 12.0 | 18.0 | 0.00 | 0.26 | 0.20 | 71 | 1016.2 |
| 20260904154004 | 64 | 271 | 11.0 | 16.0 | 0.00 | 0.26 | 0.20 | 71 | 1016.3 |
| 20260904153503 | 64 | 262 | 9.0 | 14.0 | 0.00 | 0.26 | 0.20 | 70 | 1016.3 |
| 20260904153004 | 64 | 271 | 9.0 | 13.0 | 0.00 | 0.26 | 0.20 | 70 | 1016.3 |
| 20260904152004 | 64 | 266 | 10.0 | 18.0 | 0.00 | 0.26 | 0.20 | 71 | 1016.1 |
| 20260904151003 | 64 | 257 | 6.0 | 12.0 | 0.00 | 0.26 | 0.20 | 72 | 1016.1 |
| 20260904150504 | 64 | 275 | 10.0 | 14.0 | 0.00 | 0.26 | 0.20 | 71 | 1016.0 |
| 20260904145504 | 65 | 247 | 9.0 | 18.0 | 0.00 | 0.26 | 0.20 | 70 | 1016.1 |
| 20260904145003 | 65 | 281 | 9.0 | 17.0 | 0.00 | 0.26 | 0.20 | 70 | 1015.9 |
| 20260904144504 | 65 | 272 | 12.0 | 17.0 | 0.00 | 0.26 | 0.20 | 70 | 1015.8 |
| 20260904144004 | 65 | 259 | 10.0 | 16.0 | 0.00 | 0.26 | 0.20 | 70 | 1015.8 |
| 20260904143003 | 65 | 262 | 10.0 | 20.0 | 0.00 | 0.26 | 0.20 | 70 | 1015.8 |
| 20260904142504 | 65 | 245 | 11.0 | 18.0 | 0.00 | 0.26 | 0.20 | 70 | 1015.8 |
| 20260904142004 | 65 | 277 | 8.0 | 18.0 | 0.00 | 0.26 | 0.20 | 70 | 1015.7 |
| 20260904141004 | 65 | 278 | 10.0 | 20.0 | 0.00 | 0.26 | 0.20 | 68 | 1015.4 |
| 20260904140503 | 66 | 280 | 12.0 | 20.0 | 0.00 | 0.26 | 0.20 | 69 | 1015.4 |
| 20260904140004 | 66 | 245 | 10.0 | 17.0 | 0.00 | 0.26 | 0.20 | 68 | 1015.5 |
| 20260904135503 | 66 | 257 | 10.0 | 17.0 | 0.00 | 0.26 | 0.20 | 69 | 1015.4 |
| 20260904135003 | 66 | 267 | 12.0 | 20.0 | 0.00 | 0.26 | 0.20 | 69 | 1015.3 |
| 20260904134504 | 66 | 286 | 9.0 | 14.0 | 0.00 | 0.26 | 0.20 | 69 | 1015.3 |
| 20260904134004 | 66 | 253 | 10.0 | 18.0 | 0.00 | 0.26 | 0.20 | 70 | 1015.3 |
| 20260904133503 | 66 | 276 | 10.0 | 18.0 | 0.00 | 0.26 | 0.20 | 70 | 1015.3 |
| 20260904133004 | 66 | 266 | 12.0 | 18.0 | 0.00 | 0.26 | 0.20 | 70 | 1015.3 |
| 20260904132503 | 65 | 260 | 11.0 | 16.0 | 0.00 | 0.26 | 0.20 | 71 | 1015.2 |
| 20260904132003 | 65 | 275 | 10.0 | 16.0 | 0.00 | 0.26 | 0.20 | 71 | 1015.0 |
| 20260904131504 | 65 | 257 | 12.0 | 17.0 | 0.00 | 0.26 | 0.20 | 71 | 1015.1 |
| 20260904131003 | 65 | 269 | 10.0 | 17.0 | 0.00 | 0.26 | 0.20 | 71 | 1015.1 |
| 20260904130504 | 65 | 268 | 9.0 | 18.0 | 0.00 | 0.26 | 0.20 | 69 | 1015.2 |
| 20260904130004 | 65 | 276 | 11.0 | 15.0 | 0.00 | 0.26 | 0.20 | 69 | 1015.2 |
| 20260904125504 | 64 | 268 | 10.0 | 18.0 | 0.00 | 0.26 | 0.20 | 71 | 1015.1 |
| 20260904125004 | 64 | 265 | 13.0 | 18.0 | 0.00 | 0.26 | 0.20 | 70 | 1015.2 |
| 20260904123004 | 64 | 250 | 9.0 | 16.0 | 0.00 | 0.26 | 0.20 | 71 | 1015.0 |
| 20260904122504 | 64 | 265 | 7.0 | 16.0 | 0.00 | 0.26 | 0.20 | 71 | 1015.0 |
| 20260904121503 | 64 | 282 | 9.0 | 15.0 | 0.00 | 0.26 | 0.20 | 69 | 1014.8 |
| 20260904121004 | 64 | 282 | 11.0 | 18.0 | 0.00 | 0.26 | 0.20 | 68 | 1014.7 |
| 20260904120504 | 64 | 290 | 10.0 | 20.0 | 0.00 | 0.26 | 0.20 | 68 | 1014.6 |
| 20260904115503 | 64 | 289 | 14.0 | 23.0 | 0.00 | 0.26 | 0.20 | 68 | 1014.4 |
| 20260904114503 | 65 | 276 | 12.0 | 20.0 | 0.00 | 0.26 | 0.20 | 71 | 1014.3 |
| 20260904114004 | 65 | 268 | 12.0 | 20.0 | 0.00 | 0.26 | 0.20 | 70 | 1014.2 |
| 20260904113503 | 65 | 268 | 10.0 | 15.0 | 0.00 | 0.26 | 0.20 | 70 | 1014.2 |
| 20260904113003 | 65 | 279 | 7.0 | 15.0 | 0.00 | 0.26 | 0.20 | 71 | 1014.2 |
| 20260904112503 | 65 | 299 | 11.0 | 15.0 | 0.00 | 0.26 | 0.20 | 70 | 1014.1 |
| 20260904112004 | 65 | 274 | 11.0 | 17.0 | 0.00 | 0.26 | 0.20 | 69 | 1013.9 |
| 20260904111004 | 65 | 292 | 12.0 | 20.0 | 0.00 | 0.26 | 0.20 | 69 | 1013.8 |
| 20260904110504 | 65 | 297 | 12.0 | 20.0 | 0.00 | 0.26 | 0.20 | 69 | 1013.9 |
| 20260904110003 | 65 | 280 | 12.0 | 20.0 | 0.00 | 0.26 | 0.20 | 68 | 1014.0 |
| 20260904105004 | 65 | 288 | 13.0 | 22.0 | 0.00 | 0.26 | 0.20 | 69 | 1013.7 |
| 20260904104504 | 66 | 279 | 14.0 | 20.0 | 0.00 | 0.26 | 0.20 | 72 | 1013.7 |
| 20260904103504 | 66 | 268 | 11.0 | 14.0 | 0.00 | 0.26 | 0.20 | 76 | 1013.4 |
| 20260904103003 | 65 | 271 | 7.0 | 14.0 | 0.00 | 0.26 | 0.20 | 76 | 1013.2 |
| 20260904102504 | 65 | 259 | 9.0 | 14.0 | 0.00 | 0.26 | 0.20 | 77 | 1013.4 |
| 20260904102004 | 64 | 273 | 10.0 | 15.0 | 0.00 | 0.26 | 0.20 | 77 | 1013.3 |
| 20260904101504 | 64 | 287 | 10.0 | 17.0 | 0.00 | 0.26 | 0.20 | 77 | 1013.3 |
| 20260904101004 | 64 | 287 | 10.0 | 16.0 | 0.00 | 0.26 | 0.20 | 79 | 1013.3 |
| 20260904100004 | 64 | 268 | 9.0 | 14.0 | 0.00 | 0.26 | 0.20 | 82 | 1013.1 |
| 20260904095504 | 64 | 278 | 9.0 | 16.0 | 0.00 | 0.26 | 0.20 | 84 | 1013.1 |
| 20260904095003 | 63 | 277 | 9.0 | 14.0 | 0.00 | 0.26 | 0.20 | 85 | 1013.2 |
| 20260904094003 | 63 | 267 | 10.0 | 17.0 | 0.00 | 0.26 | 0.20 | 86 | 1013.1 |
| 20260904093503 | 63 | 273 | 9.0 | 16.0 | 0.00 | 0.26 | 0.20 | 87 | 1013.1 |
| 20260904092504 | 62 | 249 | 9.0 | 15.0 | 0.00 | 0.26 | 0.20 | 88 | 1013.0 |
| 20260904092003 | 62 | 262 | 7.0 | 13.0 | 0.00 | 0.26 | 0.20 | 89 | 1013.0 |
| 20260904091503 | 62 | 272 | 6.0 | 15.0 | 0.00 | 0.26 | 0.20 | 89 | 1013.0 |
| 20260904091004 | 62 | 285 | 9.0 | 13.0 | 0.00 | 0.26 | 0.20 | 89 | 1012.9 |
| 20260904090504 | 62 | 262 | 8.0 | 13.0 | 0.00 | 0.26 | 0.20 | 89 | 1012.8 |
| 20260904090004 | 62 | 263 | 9.0 | 14.0 | 0.00 | 0.26 | 0.20 | 89 | 1012.6 |
| 20260904085503 | 62 | 271 | 11.0 | 16.0 | 0.00 | 0.26 | 0.20 | 90 | 1012.5 |
| 20260904085004 | 62 | 245 | 10.0 | 14.0 | 0.00 | 0.26 | 0.20 | 91 | 1012.5 |
| 20260904084503 | 61 | 260 | 8.0 | 15.0 | 0.00 | 0.26 | 0.20 | 91 | 1012.3 |
| 20260904084003 | 61 | 261 | 10.0 | 16.0 | 0.00 | 0.26 | 0.20 | 91 | 1012.3 |
| 20260904083503 | 61 | 272 | 9.0 | 12.0 | 0.00 | 0.26 | 0.20 | 92 | 1012.3 |
| 20260904083003 | 61 | 264 | 8.0 | 13.0 | 0.00 | 0.26 | 0.20 | 92 | 1012.3 |
| 20260904082504 | 61 | 250 | 6.0 | 12.0 | 0.00 | 0.26 | 0.20 | 92 | 1012.1 |
| 20260904082004 | 61 | 263 | 9.0 | 14.0 | 0.00 | 0.26 | 0.20 | 92 | 1012.3 |
| 20260904081004 | 60 | 285 | 8.0 | 13.0 | 0.00 | 0.26 | 0.20 | 92 | 1012.4 |
| 20260904080003 | 60 | 244 | 8.0 | 14.0 | 0.00 | 0.26 | 0.20 | 93 | 1012.3 |
| 20260904075503 | 60 | 257 | 5.0 | 12.0 | 0.00 | 0.26 | 0.20 | 93 | 1012.2 |
| 20260904075004 | 60 | 250 | 6.0 | 9.0 | 0.01 | 0.26 | 0.20 | 93 | 1012.2 |
| 20260904074503 | 60 | 260 | 7.0 | 12.0 | 0.01 | 0.26 | 0.20 | 93 | 1012.1 |
| 20260904073504 | 60 | 255 | 8.0 | 14.0 | 0.02 | 0.26 | 0.20 | 93 | 1011.9 |
| 20260904073003 | 60 | 261 | 9.0 | 14.0 | 0.02 | 0.27 | 0.20 | 93 | 1011.9 |
| 20260904072504 | 60 | 262 | 7.0 | 14.0 | 0.02 | 0.27 | 0.20 | 93 | 1012.0 |
| 20260904071503 | 60 | 248 | 9.0 | 13.0 | 0.02 | 0.27 | 0.20 | 93 | 1011.6 |
| 20260904071003 | 60 | 231 | 7.0 | 14.0 | 0.02 | 0.27 | 0.20 | 93 | 1011.6 |
| 20260904070504 | 60 | 236 | 9.0 | 14.0 | 0.02 | 0.27 | 0.20 | 93 | 1011.5 |
| 20260904070004 | 60 | 254 | 6.0 | 13.0 | 0.03 | 0.27 | 0.20 | 92 | 1011.5 |
| 20260904065503 | 60 | 264 | 6.0 | 14.0 | 0.03 | 0.27 | 0.20 | 92 | 1011.5 |
| 20260904065004 | 60 | 243 | 7.0 | 15.0 | 0.02 | 0.26 | 0.19 | 92 | 1011.5 |
| 20260904064003 | 61 | 265 | 6.0 | 10.0 | 0.02 | 0.26 | 0.19 | 92 | 1011.3 |
| 20260904063503 | 61 | 267 | 7.0 | 15.0 | 0.02 | 0.25 | 0.18 | 92 | 1011.4 |
| 20260904063004 | 61 | 296 | 6.0 | 13.0 | 0.02 | 0.25 | 0.18 | 92 | 1011.4 |
| 20260904062503 | 61 | 267 | 12.0 | 20.0 | 0.02 | 0.25 | 0.18 | 93 | 1011.3 |
| 20260904062004 | 61 | 263 | 5.0 | 12.0 | 0.02 | 0.25 | 0.18 | 93 | 1011.2 |
| 20260904061503 | 61 | 256 | 6.0 | 12.0 | 0.02 | 0.25 | 0.18 | 93 | 1011.2 |
| 20260904061004 | 61 | 271 | 5.0 | 12.0 | 0.02 | 0.24 | 0.17 | 93 | 1011.1 |
| 20260904060503 | 61 | 261 | 9.0 | 13.0 | 0.02 | 0.24 | 0.17 | 93 | 1011.0 |
| 20260904055504 | 62 | 263 | 10.0 | 18.0 | 0.02 | 0.24 | 0.17 | 92 | 1010.8 |
| 20260904055003 | 62 | 251 | 9.0 | 16.0 | 0.02 | 0.24 | 0.17 | 93 | 1010.7 |
| 20260904054504 | 62 | 249 | 7.0 | 14.0 | 0.02 | 0.24 | 0.17 | 93 | 1010.6 |
| 20260904053503 | 62 | 274 | 3.0 | 8.0 | 0.02 | 0.24 | 0.17 | 93 | 1010.4 |
| 20260904053003 | 62 | 269 | 6.0 | 10.0 | 0.01 | 0.23 | 0.16 | 93 | 1010.5 |
| 20260904052503 | 62 | 267 | 6.0 | 12.0 | 0.01 | 0.23 | 0.16 | 93 | 1010.3 |
| 20260904051504 | 63 | 270 | 8.0 | 10.0 | 0.02 | 0.23 | 0.16 | 93 | 1010.1 |
| 20260904051003 | 63 | 257 | 6.0 | 12.0 | 0.03 | 0.23 | 0.16 | 92 | 1010.1 |
| 20260904050503 | 63 | 275 | 7.0 | 12.0 | 0.04 | 0.23 | 0.16 | 92 | 1010.0 |
| 20260904050004 | 63 | 256 | 8.0 | 12.0 | 0.04 | 0.23 | 0.16 | 92 | 1009.9 |
| 20260904045503 | 63 | 266 | 9.0 | 14.0 | 0.04 | 0.22 | 0.15 | 92 | 1009.9 |
| 20260904045004 | 64 | 264 | 7.0 | 12.0 | 0.04 | 0.22 | 0.15 | 92 | 1010.0 |
| 20260904044503 | 64 | 262 | 8.0 | 14.0 | 0.05 | 0.22 | 0.15 | 92 | 1009.7 |
| 20260904044004 | 64 | 262 | 11.0 | 18.0 | 0.06 | 0.22 | 0.15 | 92 | 1009.7 |
| 20260904043503 | 65 | 260 | 12.0 | 22.0 | 0.06 | 0.22 | 0.15 | 92 | 1009.5 |
| 20260904043003 | 65 | 276 | 13.0 | 26.0 | 0.06 | 0.22 | 0.15 | 92 | 1009.5 |
| 20260904042504 | 66 | 275 | 15.0 | 26.0 | 0.06 | 0.22 | 0.15 | 93 | 1009.2 |
| 20260904042004 | 66 | 221 | 16.0 | 26.0 | 0.05 | 0.20 | 0.13 | 93 | 1008.8 |
| 20260904041504 | 66 | 239 | 15.0 | 23.0 | 0.06 | 0.20 | 0.13 | 93 | 1008.9 |
| 20260904041004 | 66 | 239 | 15.0 | 26.0 | 0.05 | 0.20 | 0.13 | 93 | 1009.0 |
| 20260904040503 | 66 | 247 | 14.0 | 22.0 | 0.05 | 0.19 | 0.12 | 93 | 1008.9 |
| 20260904040004 | 66 | 252 | 13.0 | 28.0 | 0.05 | 0.19 | 0.12 | 93 | 1008.9 |
| 20260904035503 | 66 | 225 | 16.0 | 28.0 | 0.04 | 0.18 | 0.11 | 93 | 1009.0 |
| 20260904035004 | 66 | 234 | 14.0 | 26.0 | 0.05 | 0.18 | 0.11 | 93 | 1009.0 |
| 20260904034004 | 66 | 251 | 12.0 | 29.0 | 0.04 | 0.17 | 0.09 | 93 | 1009.1 |
| 20260904033003 | 66 | 235 | 14.0 | 28.0 | 0.04 | 0.16 | 0.09 | 93 | 1009.2 |
| 20260904032504 | 66 | 221 | 13.0 | 31.0 | 0.04 | 0.16 | 0.09 | 93 | 1009.2 |
| 20260904032004 | 66 | 240 | 16.0 | 29.0 | 0.05 | 0.16 | 0.09 | 93 | 1009.3 |
| 20260904031504 | 66 | 260 | 16.0 | 30.0 | 0.04 | 0.15 | 0.08 | 93 | 1009.3 |
| 20260904031003 | 66 | 226 | 15.0 | 30.0 | 0.04 | 0.15 | 0.08 | 93 | 1009.5 |
| 20260904030503 | 67 | 233 | 16.0 | 26.0 | 0.03 | 0.14 | 0.07 | 93 | 1009.7 |
| 20260904030004 | 67 | 230 | 16.0 | 24.0 | 0.03 | 0.14 | 0.07 | 93 | 1009.6 |
| 20260904025004 | 67 | 228 | 13.0 | 32.0 | 0.02 | 0.13 | 0.06 | 93 | 1009.6 |
| 20260904024504 | 67 | 230 | 18.0 | 32.0 | 0.02 | 0.13 | 0.06 | 93 | 1009.6 |
| 20260904024003 | 67 | 237 | 14.0 | 25.0 | 0.02 | 0.13 | 0.06 | 92 | 1009.7 |
| 20260904023504 | 67 | 250 | 12.0 | 20.0 | 0.02 | 0.13 | 0.06 | 93 | 1009.7 |
| 20260904023004 | 67 | 245 | 14.0 | 22.0 | 0.01 | 0.12 | 0.05 | 92 | 1009.8 |
| 20260904022503 | 67 | 231 | 13.0 | 31.0 | 0.01 | 0.12 | 0.05 | 92 | 1009.7 |
| 20260904022003 | 67 | 235 | 10.0 | 21.0 | 0.00 | 0.11 | 0.04 | 92 | 1009.8 |
| 20260904021504 | 67 | 234 | 14.0 | 26.0 | 0.00 | 0.11 | 0.04 | 92 | 1010.0 |
| 20260904021004 | 67 | 249 | 13.0 | 22.0 | 0.00 | 0.11 | 0.04 | 92 | 1010.1 |
| 20260904015503 | 67 | 225 | 14.0 | 21.0 | 0.00 | 0.11 | 0.04 | 92 | 1010.4 |
| 20260904013504 | 67 | 248 | 16.0 | 29.0 | 0.00 | 0.12 | 0.04 | 93 | 1010.7 |
| 20260904013004 | 67 | 226 | 13.0 | 25.0 | 0.00 | 0.12 | 0.04 | 93 | 1010.7 |
| 20260904012503 | 67 | 247 | 16.0 | 26.0 | 0.00 | 0.12 | 0.04 | 93 | 1010.8 |
| 20260904012004 | 67 | 241 | 10.0 | 25.0 | 0.00 | 0.12 | 0.04 | 93 | 1010.8 |
| 20260904011504 | 67 | 223 | 10.0 | 21.0 | 0.00 | 0.12 | 0.04 | 93 | 1010.8 |
| 20260904011003 | 67 | 242 | 14.0 | 26.0 | 0.00 | 0.12 | 0.04 | 93 | 1010.8 |
| 20260904010503 | 67 | 229 | 15.0 | 26.0 | 0.00 | 0.13 | 0.04 | 93 | 1010.9 |
| 20260904010004 | 67 | 261 | 13.0 | 20.0 | 0.00 | 0.13 | 0.04 | 93 | 1011.1 |
| 20260904005503 | 67 | 256 | 13.0 | 22.0 | 0.00 | 0.13 | 0.04 | 93 | 1011.1 |
| 20260904004503 | 67 | 256 | 7.0 | 22.0 | 0.01 | 0.15 | 0.04 | 93 | 1011.1 |
| 20260904003503 | 66 | 234 | 16.0 | 26.0 | 0.02 | 0.16 | 0.04 | 93 | 1011.2 |
| 20260904002503 | 66 | 220 | 10.0 | 18.0 | 0.02 | 0.16 | 0.04 | 93 | 1011.3 |
| 20260904001503 | 66 | 236 | 9.0 | 17.0 | 0.02 | 0.17 | 0.04 | 93 | 1011.4 |
| 20260904001004 | 66 | 228 | 12.0 | 20.0 | 0.02 | 0.18 | 0.04 | 93 | 1011.5 |
| 20260904000003 | 66 | 232 | 8.0 | 18.0 | 0.04 | 0.19 | 0.04 | 93 | 1011.5 |
| 20260903235004 | 66 | 209 | 8.0 | 20.0 | 0.04 | 0.19 | 0.03 | 93 | 1011.5 |
| 20260903234503 | 66 | 225 | 9.0 | 15.0 | 0.04 | 0.19 | 0.03 | 93 | 1011.6 |
| 20260903234004 | 66 | 209 | 10.0 | 18.0 | 0.04 | 0.19 | 0.03 | 93 | 1011.6 |
| 20260903233503 | 65 | 213 | 12.0 | 18.0 | 0.03 | 0.18 | 0.02 | 93 | 1011.6 |
| 20260903233003 | 65 | 227 | 12.0 | 20.0 | 0.03 | 0.18 | 0.02 | 93 | 1011.7 |
| 20260903232504 | 65 | 232 | 11.0 | 16.0 | 0.03 | 0.19 | 0.02 | 92 | 1011.8 |
| 20260903232003 | 65 | 221 | 10.0 | 18.0 | 0.03 | 0.19 | 0.02 | 92 | 1012.0 |
| 20260903231004 | 65 | 208 | 7.0 | 16.0 | 0.02 | 0.18 | 0.02 | 92 | 1012.0 |
| 20260903230504 | 65 | 202 | 6.0 | 14.0 | 0.01 | 0.17 | 0.00 | 92 | 1012.0 |
| 20260903230004 | 65 | 213 | 7.0 | 15.0 | 0.01 | 0.17 | 0.00 | 92 | 1012.1 |
| 20260903225503 | 65 | 196 | 10.0 | 16.0 | 0.01 | 0.17 | 0.17 | 92 | 1012.4 |
| 20260903225004 | 65 | 214 | 7.0 | 15.0 | 0.01 | 0.17 | 0.16 | 92 | 1012.6 |
| 20260903224504 | 65 | 208 | 9.0 | 15.0 | 0.01 | 0.17 | 0.16 | 92 | 1012.8 |
| 20260903223503 | 65 | 214 | 9.0 | 15.0 | 0.01 | 0.17 | 0.16 | 92 | 1013.0 |
| 20260903223004 | 65 | 228 | 9.0 | 15.0 | 0.01 | 0.18 | 0.16 | 92 | 1013.0 |
| 20260903222004 | 65 | 242 | 9.0 | 15.0 | 0.01 | 0.18 | 0.16 | 92 | 1013.2 |
| 20260903221003 | 65 | 224 | 10.0 | 18.0 | 0.01 | 0.19 | 0.16 | 92 | 1013.3 |
| 20260903220503 | 65 | 228 | 11.0 | 20.0 | 0.01 | 0.19 | 0.16 | 92 | 1013.3 |
| 20260903220004 | 65 | 220 | 11.0 | 20.0 | 0.02 | 0.20 | 0.16 | 93 | 1013.5 |
| 20260903215503 | 65 | 238 | 9.0 | 20.0 | 0.02 | 0.20 | 0.16 | 92 | 1013.5 |
| 20260903215004 | 65 | 227 | 10.0 | 20.0 | 0.02 | 0.19 | 0.15 | 92 | 1013.5 |
| 20260903214503 | 65 | 225 | 12.0 | 20.0 | 0.02 | 0.20 | 0.15 | 92 | 1013.6 |
| 20260903213004 | 65 | 242 | 9.0 | 16.0 | 0.02 | 0.20 | 0.15 | 92 | 1013.8 |
| 20260903212503 | 65 | 223 | 9.0 | 18.0 | 0.02 | 0.20 | 0.15 | 92 | 1013.8 |
| 20260903212003 | 65 | 221 | 9.0 | 20.0 | 0.02 | 0.20 | 0.15 | 92 | 1013.8 |
| 20260903211504 | 65 | 222 | 12.0 | 18.0 | 0.02 | 0.20 | 0.15 | 93 | 1013.9 |
| 20260903211003 | 65 | 221 | 9.0 | 20.0 | 0.02 | 0.20 | 0.15 | 93 | 1013.9 |
| 20260903210504 | 65 | 221 | 5.0 | 12.0 | 0.02 | 0.20 | 0.15 | 92 | 1014.0 |
| 20260903205503 | 64 | 230 | 5.0 | 13.0 | 0.02 | 0.20 | 0.14 | 92 | 1014.1 |
| 20260903205004 | 64 | 238 | 9.0 | 15.0 | 0.00 | 0.19 | 0.13 | 92 | 1014.3 |
| 20260903204504 | 64 | 234 | 10.0 | 16.0 | 0.00 | 0.20 | 0.13 | 91 | 1014.5 |